EW4638 Weather Reports


time (UTC)temp
C
wind
direction
speed
KPH
gust
KPH
rain 1hr
cm
rain 24hr
cm
rain mn
cm
humidity
%
barometer
mb
20260503214546 18 214 0.0 9.7 0.00 0.00 0.00 42 1016.0
20260503213048 18 255 4.8 16.1 0.00 0.00 0.00 39 1016.4
20260503211547 18 217 1.6 8.0 0.00 0.00 0.00 42 1016.7
20260503210053 18 302 1.6 14.5 0.00 0.00 0.00 40 1016.8
20260503204558 18 257 1.6 8.0 0.00 0.00 0.00 42 1016.9
20260503203042 18 229 0.0 4.8 0.00 0.00 0.00 40 1017.0
20260503201532 18 26 1.6 8.0 0.00 0.00 0.00 43 1017.4
20260503194607 17 242 0.0 12.9 0.00 0.00 0.00 38 1017.8
20260503193055 17 209 1.6 11.3 0.00 0.00 0.00 40 1018.1
20260503190051 16 181 0.0 11.3 0.00 0.00 0.00 40 1018.6
20260503184542 16 171 0.0 14.5 0.00 0.00 0.00 44 1018.8
20260503183031 16 64 1.6 16.1 0.00 0.00 0.00 39 1019.0
20260503181532 16 194 4.8 11.3 0.00 0.00 0.00 39 1019.4
20260503180028 16 351 3.2 12.9 0.00 0.00 0.00 40 1019.5
20260503174524 16 277 0.0 9.7 0.00 0.00 0.00 38 1019.7
20260503173023 15 194 0.0 3.2 0.00 0.00 0.00 40 1019.9
20260503171521 15 173 0.0 6.4 0.00 0.00 0.00 40 1020.1
20260503081556 4 34 0.0 0.0 0.00 0.00 0.00 80 1019.2
20260503071543 5 34 0.0 1.6 0.00 0.00 0.00 77 1018.8
20260503054536 6 34 0.0 0.0 0.00 0.00 0.00 77 1018.5
20260503053028 6 34 0.0 0.0 0.00 0.00 0.00 76 1018.4
20260503051526 6 34 0.0 4.8 0.00 0.00 0.00 74 1018.5
20260503050024 6 36 0.0 6.4 0.00 0.00 0.00 74 1018.4
20260503044537 6 42 0.0 3.2 0.00 0.00 0.00 73 1018.3
20260503043023 7 101 0.0 3.2 0.00 0.00 0.00 74 1018.3
20260503041519 7 16 0.0 4.8 0.00 0.00 0.00 73 1018.1
20260503040017 7 16 0.0 3.2 0.00 0.00 0.00 72 1018.0
20260503034515 7 15 0.0 6.4 0.00 0.00 0.00 73 1017.9
20260503033013 7 22 0.0 6.4 0.00 0.00 0.00 72 1017.9
20260503031510 8 21 0.0 1.6 0.00 0.00 0.00 71 1017.9
20260503030015 8 20 0.0 0.0 0.00 0.00 0.00 69 1017.9
20260503024506 8 20 0.0 8.0 0.00 0.00 0.00 67 1017.9
20260503023003 8 49 0.0 1.6 0.00 0.00 0.00 66 1017.7
20260503021502 9 52 0.0 0.0 0.00 0.00 0.00 66 1017.7
20260503020104 9 56 0.0 0.0 0.00 0.00 0.00 68 1017.5
20260503014559 9 57 0.0 0.0 0.00 0.00 0.00 67 1017.3
20260503013056 9 59 0.0 0.0 0.00 0.00 0.00 68 1017.2
20260503011604 9 92 0.0 4.8 0.00 0.00 0.00 65 1016.9
20260503010052 10 92 0.0 0.0 0.00 0.00 0.00 65 1016.7
20260503004548 10 94 0.0 6.4 0.00 0.00 0.00 63 1016.6
20260503003045 10 26 0.0 6.4 0.00 0.00 0.00 61 1016.5
20260503001552 11 25 0.0 1.6 0.00 0.00 0.00 60 1016.3
20260503000017 11 25 0.0 4.8 0.00 0.00 0.00 58 1016.1
20260502234527 11 26 0.0 8.0 0.00 0.00 0.00 58 1015.9
20260502233013 12 21 0.0 4.8 0.00 0.00 0.00 58 1015.9
20260502231521 12 22 0.0 3.2 0.00 0.00 0.00 58 1015.9
20260502230006 12 355 0.0 3.2 0.00 0.00 0.00 56 1015.8
20260502223001 13 34 0.0 3.2 0.00 0.00 0.00 56 1015.8
20260502221602 12 10 0.0 4.8 0.00 0.00 0.00 58 1015.5
20260502220100 12 5 0.0 8.0 0.00 0.00 0.00 58 1015.4